Meteo Giornale » Osservazioni meteo Stati Uniti (USA) » Valley City
ore: 00:55 - Osservazioni Meteo Valley City
Lat. 46° 56' N Lon. 98° 1' W Alt. 427 metri s.l.m.
16 °C
Sereno
Temp. 24 Ore
13 °C
29 °C
Ovest/Nord-Ovest
13 Km/h
Dew point 11 °C
Umidità 72 %
Visibilità 10 Km
Il sole sorge alle ore 06:52
Il sole tramonta alle ore 20:11
| Data e Ora | Cielo e Fenomeni | T °C | DP °C | Um. % | Pres. hPa | Vis. km | Vento km/h | |
|---|---|---|---|---|---|---|---|---|
| Oggi h: 00:55 | Sereno | 16 | 11 | 72 | 1014 | 10 | O/NO 13 | |
| Oggi h: 00:35 | Sereno | 16 | 11 | 72 | 1013 | 10 | O/NO 14.8 | |
| Oggi h: 00:15 | Sereno | 17 | 10 | 63 | 1013 | 10 | O/NO 16.7 | |
| Ieri h: 23:55 | Sereno | 18 | 10 | 59 | 1013 | 10 | O/NO 18.5 | |
| Ieri h: 23:35 | Sereno | 20 | 9 | 49 | 1013 | 10 | O/NO 20.3 | |
| Ieri h: 23:15 | Sereno | 20 | 8 | 45 | 1012 | 10 | O 20.3 | |
| Ieri h: 22:55 | Sereno | 20 | 8 | 45 | 1012 | 10 | O/SO 22.2 | |
| Ieri h: 22:35 | Sereno | 21 | 8 | 43 | 1012 | 10 | O/SO 18.5 | |
| Ieri h: 22:15 | Sereno | 21 | 8 | 43 | 1012 | 10 | O/SO 22.2 | |
| Ieri h: 21:55 | Sereno | 21 | 8 | 43 | 1012 | 10 | SO 18.5 | |
| Ieri h: 21:35 | Sereno | 22 | 8 | 40 | 1012 | 10 | SO 16.7 | |
| Ieri h: 21:15 | Sereno | 22 | 8 | 40 | 1011 | 10 | O/SO 20.3 | |
| Ieri h: 20:55 | Sereno | 22 | 8 | 40 | 1011 | 10 | O/SO 18.5 | |
| Ieri h: 20:35 | Sereno | 22 | 9 | 43 | 1011 | 10 | O/SO 18.5 | |
| Ieri h: 20:15 | Sereno | 22 | 9 | 43 | 1011 | 10 | O/SO 14.8 | |
| Ieri h: 19:55 | Sereno | 24 | 9 | 38 | 1011 | 10 | O/SO 16.7 | |
| Ieri h: 19:35 | Sereno | 25 | 9 | 36 | 1011 | 10 | O/SO 16.7 | |
| Ieri h: 19:15 | Sereno | 26 | 9 | 34 | 1011 | 10 | O 22.2 | |
| Ieri h: 18:55 | Sereno | 27 | 10 | 34 | 1010 | 10 | O 20.3 | |
| Ieri h: 18:35 | Sereno | 28 | 9 | 30 | 1010 | 10 | O/SO 33.3 | |
| Ieri h: 18:15 | Sereno | 28 | 9 | 30 | 1010 | 10 | O/SO 35.2 | |
| Ieri h: 17:55 | Sereno | 28 | 8 | 28 | 1010 | 14 | O/SO 38.8 | |
| Ieri h: 17:35 | Sereno | 28 | 9 | 30 | 1010 | 10 | O/SO 48.1 | |
| Ieri h: 17:15 | Sereno | 29 | 10 | 30 | 1010 | 10 | O 42.6 | |
| Ieri h: 16:55 | Sereno | 29 | 10 | 30 | 1010 | 10 | O/SO 35.2 | |
| Ieri h: 16:35 | Sereno | 29 | 10 | 30 | 1010 | 10 | O/SO 38.8 | |
| Ieri h: 16:15 | Sereno | 29 | 10 | 30 | 1010 | 10 | O/SO 42.6 | |
| Ieri h: 15:55 | Sereno | 29 | 10 | 30 | 1010 | 10 | O/SO 37 | |
| Ieri h: 15:35 | Sereno | 29 | 9 | 28 | 1010 | 10 | O/SO 35.2 | |
| Ieri h: 15:15 | Sereno | 29 | 9 | 28 | 1010 | 14 | SO 31.5 | |
| Ieri h: 14:55 | Sereno | 29 | 8 | 26 | 1010 | 14 | SO 44.4 | |
| Ieri h: 14:35 | Sereno | 28 | 8 | 28 | 1011 | 10 | SO 35.2 | |
| Ieri h: 14:15 | Sereno | 28 | 8 | 28 | 1011 | 14 | O/SO 37 | |
| Ieri h: 13:55 | precipitazioni | 28 | 7 | 26 | 1011 | 14 | SO 31.5 | |
| Ieri h: 13:35 | precipitazioni | 28 | 7 | 26 | 1011 | 10 | O/SO 33.3 | |
| Ieri h: 13:15 | precipitazioni | 27 | 7 | 28 | 1011 | 10 | SO 29.6 | |
| Ieri h: 12:55 | Sereno | 27 | 7 | 28 | 1012 | 10 | O/SO 27.8 | |
| Ieri h: 12:35 | Sereno | 26 | 10 | 36 | 1012 | 10 | O/SO 20.3 | |
| Ieri h: 12:15 | Sereno | 25 | 10 | 38 | 1012 | 14 | O/SO 22.2 | |
| Ieri h: 11:55 | Sereno | 25 | 11 | 41 | 1012 | 10 | O 22.2 | |
| Ieri h: 11:35 | Sereno | 24 | 12 | 47 | 1012 | 10 | O/SO 24 | |
| Ieri h: 11:15 | Sereno | 23 | 12 | 49 | 1012 | 10 | O 24 | |
| Ieri h: 10:55 | Sereno | 22 | 14 | 60 | 1012 | 10 | O 24 | |
| Ieri h: 10:35 | Sereno | 22 | 14 | 60 | 1012 | 14 | O 24 | |
| Ieri h: 10:15 | Sereno | 21 | 14 | 64 | 1012 | 10 | O 22.2 | |
| Ieri h: 09:55 | Sereno | 20 | 14 | 68 | 1012 | 10 | O 22.2 | |
| Ieri h: 09:35 | Sereno | 19 | 15 | 77 | 1012 | 10 | O 20.3 | |
| Ieri h: 09:15 | Sereno | 18 | 15 | 82 | 1012 | 10 | O 25.9 | |
| Ieri h: 08:55 | Sereno | 17 | 16 | 93 | 1011 | 10 | O 22.2 | |
| Ieri h: 08:35 | Sereno | 15 | 16 | 0 | 1011 | 10 | O 25.9 | |
| Ieri h: 08:15 | Sereno | 15 | 15 | 100 | 1011 | 10 | O 24 | |
| Ieri h: 07:55 | Sereno | 14 | 14 | 100 | 1011 | 10 | O 20.3 | |
| Ieri h: 07:35 | Sereno | 13 | 13 | 100 | 1011 | 14 | O 18.5 | |
| Ieri h: 07:15 | Sereno | 13 | 13 | 100 | 1010 | 14 | O 16.7 | |
| Ieri h: 06:55 | Sereno | 13 | 13 | 100 | 1010 | 14 | O/SO 14.8 | |
| Ieri h: 06:35 | Sereno | 13 | 14 | 0 | 1010 | 10 | O 18.5 | |
| Ieri h: 06:15 | Sereno | 14 | 14 | 100 | 1010 | 10 | O 14.8 | |
| Ieri h: 05:55 | Sereno | 14 | 14 | 100 | 1010 | 10 | O 14.8 | |
| Ieri h: 05:35 | Sereno | 15 | 15 | 100 | 1010 | 10 | O 20.3 | |
| Ieri h: 05:15 | Sereno | 15 | 15 | 100 | 1010 | 10 | O 18.5 | |
| Ieri h: 04:55 | Sereno | 15 | 15 | 100 | 1009 | 10 | O 16.7 | |
| Ieri h: 04:35 | Sereno | 15 | 15 | 100 | 1009 | 10 | O/NO 16.7 | |
| Ieri h: 04:15 | Sereno | 16 | 16 | 100 | 1009 | 10 | O 16.7 | |
| Ieri h: 03:55 | Sereno | 16 | 16 | 100 | 1009 | 10 | O 25.9 | |
| Ieri h: 03:35 | Sereno | 17 | 17 | 100 | 1009 | 14 | O 22.2 | |
| Ieri h: 03:15 | Poco Nuvoloso | 17 | 17 | 100 | 1008 | 10 | O 16.7 | |
| Ieri h: 02:55 | Molto Nuvoloso | 18 | 18 | 100 | 1008 | 10 | O 18.5 | |
| Ieri h: 02:35 | Poco Nuvoloso | 18 | 18 | 100 | 1008 | 10 | O 20.3 | |
| Ieri h: 02:15 | Sereno | 18 | 18 | 100 | 1008 | 10 | O 20.3 | |
| Ieri h: 01:55 | Sereno | 18 | 18 | 100 | 1008 | 10 | O 22.2 | |
| Ieri h: 01:35 | Sereno | 18 | 19 | 0 | 1007 | 10 | O 20.3 | |



